sat.trackr.live / text

‹ back to catalog

STARLINK-35416

NORAD 66248 · 2025-245Q

PAYLOAD ACTIVE UNKNOWN

§ Identity

Operator
Country
US
Launch date
2025-10-29
Launch site
AFETR
Launch vehicle
Mass (kg)
RCS (m²)

Purposes: comms

External: N2YO · Heavens-Above · Gunter

§ Orbital elements

Epoch: 2026-05-25T03:06:37.117728Z

Period
94.01 min
Inclination
53.1593°
Eccentricity
0.0001562
Mean motion
15.31726597 rev/d
Perigee alt
469.6 km
Apogee alt
471.7 km
Semi-major
6,848.8 km
B*
7.8766e-4
RAAN
288.5631°
Arg perigee
105.1661°
Mean anomaly
254.9513°
Rev number
3,290

§ Raw data

STARLINK-354161 66248U 25245Q   26145.12959627  .00024176  00000+0  78766-3 0  99992 66248  53.1593 288.5631 0001562 105.1661 254.9513 15.31726597 32900

JSON: /api/v1/satellites/66248 · /tle

For live sub-satellite position, see the globe view (requires WebGL).

§ Visibility from observer

Set your observer location to see the next 7 days of passes ≥ 10°. The values pass through the URL so the page stays shareable.

No JS? Fill the form by hand. The geolocation button needs JavaScript.